Preview of NWS' New Version of Forecast
This preview is not operational and should not be used for support decisions.
Latest weather observations around

Hayward, Hayward Municipal Airport (KHYR)

Using English Units (Switch to International System of Units)
Date/ Time (CDT) Wind (mph) Vis. (mi) Weather Sky Cond. Temp (°F) Rel. Humidity Wind Chill (°F) Heat Index (°F) Pressure Precip. (in)
Air Dwpt 6 hour Altimeter (inHg) Sea level (inHg) 1 hr 3 hr 6 hr
Max Min
Sep 15 02:53 Calm 10 Clear CLR 59 56     90%     29.98 29.98      
Sep 15 01:53 Calm 10 Clear   60 56     86%     29.99 29.99      
Sep 15 00:53 S 6 10 Cloudy OVC041 60 56     86%     30 30     0
Sep 14 23:53 E 3 10 Mostly Cloudy BKN042 59 56     90%     30.01 30.01      
Sep 14 22:53 3 10 Mostly Cloudy SCT045 BKN120 59 55     87%     30.01 30.01 0    
Sep 14 21:53 SSE 6 10 Light Rain FEW043 OVC055 59 55     87%     30.02 30.02 0 0  
Sep 14 20:53 S 5 10 Mostly Cloudy BKN060 58 55     90%     30.02 30.03      
Sep 14 19:53 SSE 9 10 Partly Cloudy SCT075 59 54     83%     30 30.02 0    
Sep 14 19:28 SSE 5 3 Rain and Fog/Mist FEW060 OVC080 58 55     90%     30.03   0    
Sep 14 19:14 SE 5 2 Rain and Fog/Mist SCT060 OVC085 58 56     93%     30.04   0    
Sep 14 18:53 Calm 5 Light Rain and Fog/Mist OVC085 59 55     87%     30.05 30.06 0   0
Sep 14 18:50 Calm 3 Light Rain and Fog/Mist OVC085 59 55     88%     30.05   0    
Sep 14 18:44 SE 3 1.75 Rain and Fog/Mist BKN080 OVC100 59 55     87%     30.04   0    
Sep 14 17:53 SE 6 3 Light Rain and Fog/Mist OVC095 60 56     86%     30.02 30.03 0    
Sep 14 17:24 ESE 5 4 Light Rain OVC100 61 56     83%     30.04   0    
Sep 14 17:12 Calm 2 Rain OVC100 62 56     80%     30.06   0    
Sep 14 16:53 SSE 5 10 Light Rain BKN110 63 54     72%     30.05 30.06 0    
Sep 14 15:53 S 8 10 Mostly Cloudy BKN100 67 53     61%     30.05 30.06      
Sep 14 14:53 SSE 5 10 Partly Cloudy SCT095 66 51     59%     30.06 30.06      
Sep 14 13:53 S 9 10 Mostly Clear FEW100 66 51     59%     30.08 30.09      
Sep 14 12:53 Calm 10 Partly Cloudy SCT100 64 49     58%     30.1 30.11      
Sep 14 11:53 SW 7 10 Cloudy OVC095 62 49     62%     30.12 30.13      
Sep 14 10:53 S 5 10 Clear CLR 60 50     69%     30.11 30.12      
Sep 14 09:53 WSW 6 10 Clear CLR 56 49     77%     30.12 30.13      
Sep 14 09:12 WSW 5 10 Partly Cloudy SCT009 54 49     83%     30.12        
Sep 14 08:53 SW 6 10 Mostly Cloudy BKN007 51 49     92%     30.12 30.13      
Sep 14 08:26 WSW 3 10 Mostly Cloudy BKN006 50 48     93%     30.12        
Sep 14 08:15 SW 3 10 Mostly Cloudy BKN005 49 47     93% 48   30.11        
Sep 14 07:53 Calm 7 Partly Cloudy SCT005 47 45     93%     30.11 30.14      
Sep 14 07:44 Calm 4 Fog/Mist BKN006 46 45     96%     30.11        
Sep 14 07:38 Calm 1.25 Fog/Mist OVC006 45 43     93%     30.11        
Sep 14 06:53 Calm 0.25 Fog VV006 44 41     89%     30.1 30.12      
Sep 14 06:33 S 3 0.25 Fog BKN006 44 42     93% 43   30.09        
Sep 14 06:26 S 3 0.5 Fog VV005 44 43     96% 43   30.09        
Sep 14 05:53 S 3 0.25 Fog VV003 45 43     93% 44   30.08 30.1      
Sep 14 04:53 SSW 3 0.25 Fog VV003 44 43     96% 43   30.07 30.09      
Sep 14 04:28 SSW 5 0.75 Fog/Mist CLR 45 44     97% 43   30.07        
Sep 14 04:23 SSW 3 1.75 Fog/Mist CLR 45 44     97% 44   30.06        
Sep 14 03:53 Calm 10 Clear CLR 49 47     93%     30.06 30.07      
Sep 14 02:53 SW 5 10 Clear CLR 50 48     93%     30.05 30.06      
Sep 14 01:53 SW 6 10 Mostly Clear FEW006 51 48     89%     30.04 30.05      
Sep 14 00:53 SW 7 10 Clear CLR 52 48     86%     30.03 30.04     0
Sep 13 23:53 WSW 8 10 Mostly Clear FEW016 FEW050 53 49     86%     30.02 30.03      
Sep 13 22:53 WSW 10 10 Cloudy BKN048 OVC060 53 49     86%     30.01 30.02      
Sep 13 21:53 WSW 8 10 Cloudy OVC047 53 48     83%     30 30.01   0  
Sep 13 20:53 SW 8 10 Clear   52 48     86%     30 30.01      
Sep 13 19:53 WSW 5 10 Cloudy SCT013 BKN036 OVC045 52 49     89%     29.97 29.98 0    
Sep 13 19:37 W 7 6 Light Rain and Fog/Mist BKN013 BKN022 OVC028 52 49     89%     29.96   0    
Sep 13 19:14 7 3 Light Rain and Fog/Mist SCT010 BKN015 OVC024 53 50     89%     29.95   0    
Sep 13 19:11 W 8 1 Light Rain and Fog/Mist SCT008 BKN015 OVC025 53 50     89%     29.95   0    
Sep 13 19:03 7 0.75 Rain and Fog/Mist FEW008 BKN013 OVC019 53 49     86%     29.95   0    
Sep 13 19:00 WSW 10 1.5 Light Rain BKN013 OVC019 54 49     83%     29.94   0    
Sep 13 18:53 SW 10 9 Cloudy BKN015 BKN020 OVC044 54 49     83%     29.94 29.95 0   0
Sep 13 18:24 WSW 13 6 Light Rain SCT018 BKN025 OVC047 54 49     83%     29.93   0    
Sep 13 17:53 WSW 10 10 Cloudy FEW018 SCT023 OVC044 55 48     77%     29.93 29.93 0    
Sep 13 17:38 WSW 10 10 Light Rain SCT018 BKN023 OVC044 55 49     80%     29.92   0    
Sep 13 17:26 7 10 Cloudy FEW014 SCT022 OVC044 55 49     80%     29.91   0    
Sep 13 16:53 WSW 13 6 Light Rain BKN021 OVC035 56 48     75%     29.91 29.91 0    
Sep 13 16:42 WSW 11 10 Cloudy FEW018 SCT023 OVC037 55 49     80%     29.9   0    
Sep 13 16:26 SW 11 7 Light Rain SCT020 BKN025 OVC033 56 49     77%     29.9   0    
Sep 13 15:53 WSW 8 10 Light Rain SCT023 BKN035 OVC042 57 49     74%     29.89 29.9 0 0  
Sep 13 15:45 WSW 15 10 Cloudy SCT022 SCT027 OVC037 56 48     75%     29.9   0    
Sep 13 14:53 WSW 13 6 Light Rain BKN021 BKN026 OVC047 56 49     77%     29.88 29.88 0    
Sep 13 13:53 SW 11 10 Cloudy BKN020 BKN035 OVC046 57 49     74%     29.86 29.86 0    
Sep 13 13:28 WSW 10 4 Light Rain SCT020 BKN025 OVC039 57 50     77%     29.86   0    
Sep 13 12:53 WSW 14 10 Cloudy FEW019 SCT039 OVC048 57 48     72%     29.86 29.85 0   0
Sep 13 12:05 SW 14 5 Light Rain SCT020 SCT029 OVC038 55 49     80%     29.84   0    
Sep 13 11:58 SW 17 10 Cloudy FEW009 BKN029 OVC034 57 49     74%     29.84        
Sep 13 11:53 WSW 15 10 Cloudy FEW011 BKN033 OVC055 57 50     77%     29.84 29.84 0    
Sep 13 11:43 SW 15 8 Light Rain FEW011 BKN035 OVC050 57 51     81%     29.84   0    
Sep 13 11:13 SW 13 5 Light Rain BKN016 BKN022 OVC027 59 52     78%     29.82   0    
Sep 13 10:53 SW 10 8 Cloudy BKN014 OVC020 58 53     84%     29.82 29.82 0    
Sep 13 10:44 SW 13 10 Cloudy BKN014 BKN020 OVC028 58 53     84%     29.82   0    
Sep 13 10:33 SW 11 10 Cloudy SCT012 BKN021 OVC029 58 53     84%     29.82   0    
Sep 13 10:06 SW 13 7 Light Rain BKN012 OVC019 57 53     87%     29.81   0    
Sep 13 09:53 SW 8 2.5 Light Rain and Fog/Mist FEW008 BKN012 OVC019 57 54     89%     29.81 29.81 0 0  
Sep 13 08:53 SW 10 7 Cloudy OVC013 57 53     87%     29.81 29.81 0    
Sep 13 08:40 SW 10 10 Cloudy BKN011 OVC017 57 53     87%     29.81   0    
Sep 13 08:12 SW 10 10 Cloudy FEW010 OVC015 57 53     87%     29.8        
Sep 13 08:04 WSW 9 10 Cloudy BKN013 OVC019 57 53     87%     29.8        
Sep 13 07:53 WSW 10 10 Cloudy SCT010 OVC015 57 53     87%     29.8 29.8 0    
Sep 13 07:17 SW 8 10 Cloudy FEW006 BKN013 OVC023 59 56     90%     29.78   0    
Sep 13 07:08 SW 9 4 Light Rain and Fog/Mist BKN006 BKN013 OVC028 59 56     90%     29.78   0    
Sep 13 06:53 SW 8 1.25 Light Rain and Fog/Mist BKN006 OVC009 60 58     93%     29.77 29.78 0   0
Sep 13 06:48 SSW 10 1.75 Light Rain and Fog/Mist BKN009 OVC015 61 57     88%     29.77   0    
Sep 13 06:42 SSW 10 3 Light Rain and Fog/Mist BKN009 OVC015 61 58     90%     29.77   0    
Sep 13 06:06 SSW 10 10 Cloudy BKN013 OVC020 61 58     90%     29.77        
Sep 13 05:53 SSW 10 10 Mostly Cloudy SCT013 BKN019 BKN023 60 58     93%     29.77 29.77      
Sep 13 05:05 SSW 8 10 Mostly Cloudy SCT009 BKN019 60 58     93%     29.77        
Sep 13 05:00 SSW 8 10 Mostly Cloudy BKN010 BKN019 60 58     93%     29.77        
Sep 13 04:53 SSW 7 10 Mostly Cloudy BKN008 BKN019 59 57     93%     29.77 29.77      
Sep 13 03:53 S 10 9 Cloudy OVC007 61 59     93%     29.77 29.77 0 0  
Sep 13 03:02 S 8 5 Fog/Mist OVC006 61 59     93%     29.79        
Sep 13 02:53 SSE 6 2.5 Fog/Mist OVC006 61 59     93%     29.79 29.79 0    
Sep 13 02:36 S 7 2.5 Fog/Mist OVC006 61 59     93%     29.8   0    
Sep 13 02:20 S 8 4 Fog/Mist OVC005 61 59     93%     29.8   0    
Sep 13 02:07 S 10 2.5 Light Rain and Fog/Mist OVC005 61 59     93%     29.81   0    
Sep 13 01:53 S 9 7 Cloudy OVC006 61 59     93%     29.81   0    
Sep 13 00:53 S 13 10 Cloudy OVC006 62 59     90%     29.82   0   0
Sep 12 23:53 S 9 10 Cloudy OVC006 61 58     90%     29.85 29.85      
Sep 12 22:53 S 8 10 Cloudy OVC007 59 56     90%     29.86 29.86      
Sep 12 22:21 SSE 10 10 Cloudy OVC008 59 56     90%     29.87        
Sep 12 21:53 SE 11 10 Cloudy BKN012 BKN090 OVC110 58 55     90%     29.88 29.89 0 0  
Sep 12 21:27 SE 8 10 Light Rain SCT016 BKN080 OVC120 58 55     90%     29.89   0    
Sep 12 21:06 SE 8 10 Light Rain FEW008 BKN019 BKN120 57 55     93%     29.93   0    
Sep 12 20:53 ESE 9 10 Light Rain SCT110 57 55     93%     29.93 29.94 0    
Sep 12 20:17 ESE 9 10 Light Rain SCT013 BKN080 OVC120 58 55     90%     29.94   0    
Sep 12 20:10 ESE 10 10 Thunderstorms and Rain SCT011 BKN080 OVC110 58 54     87%     29.95   0    
Sep 12 20:03 ESE 10 10 Thunderstorms and Rain BKN011 BKN023 OVC120 58 55     90%     29.95   0    
Sep 12 19:53   10 Thunderstorms BKN009 BKN013 OVC023 58 55     90%     29.98   0    
Sep 12 19:15 7 4 Fog/Mist OVC009 57 55     93%     29.93   0    
Sep 12 18:53 7 2 Light Rain and Fog/Mist BKN008 OVC013 57 55     93%     29.95   0   0
Sep 12 18:48 ESE 13 1.25 Light Rain and Fog/Mist BKN007 OVC013 57 55     94%     29.95   0    
Sep 12 18:40 ESE 9 0.75 Rain and Fog/Mist OVC007 57 55     93%     29.95   0    
Sep 12 18:27 5 1.75 Fog/Mist OVC008 58 55     90%     29.95        
Sep 12 17:53 ESE 13 5 Fog/Mist OVC007 58 54     87%     29.95 29.96      
Sep 12 17:33 E 7 3 Fog/Mist OVC007 57 55     93%     29.96        
Sep 12 17:10 ESE 8 1.75 Fog/Mist OVC008 57 54     89%     29.94        
Sep 12 16:53 SE 5 10 Cloudy OVC008 57 54     89%     29.97   0    
Sep 12 16:40 6 10 Light Rain OVC008 57 54     89%     29.97   0    
Sep 12 16:27 5 5 Light Rain and Fog/Mist OVC011 58 54     87%     29.99   0    
Sep 12 16:07 ESE 10 10 Light Rain OVC011 57 54     89%     29.97   0    
Sep 12 15:53 ESE 17 10 Thunderstorms BKN011 OVC028 58 54     87%     29.96 29.97 0 0  
Sep 12 15:50 ESE 16 10 Thunderstorms BKN011 OVC028 57 54     88%     29.96   0    
Sep 12 15:31   10 Cloudy BKN012 BKN029 OVC060 58 54     87%     29.96   0    
Sep 12 15:26 E 14 10 Cloudy SCT012 BKN044 OVC060 57 54     89%     29.97   0    
Sep 12 14:53 E 15 10 Cloudy BKN013 OVC080 58 54     87%     30.01 30.01 0    
Sep 12 14:19   10 Cloudy BKN011 OVC090 58 54     87%     30.03   0    
Sep 12 14:01 ESE 15 10 Cloudy SCT011 BKN038 OVC090 58 54     87%     30.03   0    
Sep 12 13:53 E 13 5 Light Rain and Fog/Mist BKN011 BKN034 OVC090 58 54     87%     30.04 30.05 0    
Sep 12 13:17 ESE 13 10 Light Rain BKN011 BKN029 OVC120 57 54     89%     30.06   0    
Sep 12 12:53 E 16 3 Light Rain and Fog/Mist FEW016 BKN095 OVC110 56 53     90%     30.04   0   1
Sep 12 12:38 E 17 1.5 Rain and Fog/Mist FEW065 BKN095 OVC110 55 52     89%     30.06   0    
Sep 12 12:05 E 13 1 Heavy Rain and Fog/Mist SCT060 BKN075 OVC095 55 52     89%     30.09   0    
Sep 12 11:53 ESE 10 1.5 Heavy Rain and Fog/Mist SCT075 BKN095 OVC110 55 52     89%     30.12 30.13 0    
Sep 12 11:41 E 10 1.75 Rain and Fog/Mist FEW041 BKN095 OVC110 55 52     89%     30.11   0    
Sep 12 11:24 E 10 2 Rain and Fog/Mist SCT010 BKN031 OVC110 54 52     93%     30.11   0    
Sep 12 11:16 E 11 1.25 Heavy Rain and Fog/Mist BKN010 BKN027 OVC042 54 51     90%     30.11   0    
Sep 12 11:01 E 8 1 Heavy Rain and Fog/Mist OVC011 54 51     90%     30.12   0    
Sep 12 10:53 ESE 6 0.75 Heavy Rain and Fog/Mist OVC012 54 51     90%     30.13 30.14 0    
Sep 12 10:50 6 0.75 Heavy Rain and Fog/Mist BKN012 OVC037 54 52     94%     30.13   0    
Sep 12 10:45 E 9 1.5 Rain and Fog/Mist BKN012 OVC037 54 51     90%     30.13   0    
Sep 12 09:53 E 7 9 Light Rain BKN010 OVC024 54 51     90%     30.12 30.14 0 0  
Sep 12 09:32 ENE 9 3 Light Rain and Fog/Mist OVC009 53 50     89%     30.14   0    
Sep 12 09:15 ENE 9 2 Light Rain and Fog/Mist OVC010 53 50     89%     30.14   0    
Sep 12 08:53 ENE 10 10 Light Rain OVC011 53 50     89%     30.14 30.15 0    
Sep 12 08:50 ENE 13 9 Cloudy OVC011 54 50     88%     30.14   0    
Sep 12 08:29 ENE 10 2 Light Rain and Fog/Mist OVC009 53 50     89%     30.15   0    
Sep 12 07:53 ENE 9 10 Cloudy OVC009 52 49     89%     30.16 30.18      
Sep 12 07:25 ENE 9 3 Fog/Mist OVC008 52 49     89%     30.17        
Sep 12 07:08 ENE 9 1.75 Fog/Mist OVC008 52 49     89%     30.18        
Sep 12 06:53 ENE 9 6 Fog/Mist OVC008 52 49     89%     30.19 30.21      
Sep 12 05:53 E 10 10 Cloudy OVC009 51 48     89%     30.18 30.2      
Sep 12 05:51 ENE 9 10 Cloudy OVC009 52 48     87%     30.18        
Sep 12 04:53 ENE 8 10 Cloudy OVC010 51 47     86%     30.17 30.19      
Sep 12 03:53 ENE 9 10 Cloudy OVC010 51 47     86%     30.2 30.22      
Sep 12 03:24 ENE 8 10 Cloudy OVC010 51 47     86%     30.19        
May 12 21:53 NE 3 10 Clear CLR 47 31     53% 46   30.09 30.11      
May 12 11:53 E 8 10 Clear CLR 62 29     28%     30.14 30.16      
May 11 10:53 ENE 9 10 Clear CLR 49 24     37% 45   30.1 30.12      
Jun 12 00:51 Calm 1.5 Fog/Mist OVC003 63 61     94%     29.81        
Jun 11 23:11 SSE 6 4 Fog/Mist BKN004 OVC023 62 61     96%     29.78        
Jun 11 23:03 SE 6 2 Fog/Mist BKN004 OVC023 61 60     97%     29.78        
Jun 11 22:25 Calm 1 Fog/Mist SCT002 BKN025 OVC037 61 60     97%     29.76        
Jun 11 20:53 Calm 10 Partly Cloudy SCT085 63 62     97%     29.73 29.72 0    
Jun 11 20:22 SE 6 10 Cloudy FEW007 BKN018 OVC024 64 62     93%     29.74   0    
Jun 11 18:53 5 10 Cloudy SCT043 SCT085 OVC100 64 62     93%     29.7 29.7 0   2
Notice The following observation data may not be complete
Jun 11 18:27   2.5 Heavy Rain and Fog/Mist FEW018 BKN034 OVC090          %         0    
Jun 11 17:09 NW 9 0.5 Clear   63 61     93%     29.82   0    
Jun 11 14:53 S 7 10 Light Rain FEW120 62 59     90%     29.77 29.77 0    
Jun 11 05:51 Calm 10 Clear CLR 52 48     87%     29.77        
Jun 11 00:53 Calm 10 Clear CLR 63 56     78%     29.7 29.68      
Jun 10 23:53 3 10 Clear CLR 74 57     56%   74 29.68 29.65      
Jun 10 17:53 SW 13 10 Mostly Cloudy FEW060 BKN080 BKN100 90 65     44%   92 29.45 29.42      
Jun 10 00:53 SSE 9 10 Partly Cloudy SCT090 70 53     55%     29.65 29.63      
Jun 09 14:53 Calm 10 Mostly Cloudy BKN075 78 43     29%   77 29.81 29.8      
Jun 08 09:53 5 10 Clear CLR 71 54     55%   70 29.87 29.86      
Jun 08 02:53 S 7 10 Clear CLR 64 51     63%     29.93 29.92      
Jun 06 12:53 6 10 Clear CLR 74 42     32%   73 30.15 30.16      
Jun 05 14:53 NE 13 10 Clear CLR 75 44     33%   74 30.05 30.04